Weather History for Las Vegas, NV

Change the Weather History Date:

Sunday, March 31, 2013

  Actual Average Record
Temperature  
Mean Temperature 71 °F 63 °F  
Max Temperature 81 °F 74 °F 91 °F (1966)
Min Temperature 60 °F 52 °F 25 °F (1938)
Degree Days  
Heating Degree Days 0 4  
Month to date heating degree days 86 189  
Since 1 July heating degree days 1723 1880  
Cooling Degree Days 6 2  
Month to date cooling degree days 86 30  
Year to date cooling degree days 86 31  
Growing Degree Days 20 (Base 50)    
Moisture  
Dew Point 32 °F    
Average Humidity 26    
Maximum Humidity 37    
Minimum Humidity 14    
Precipitation  
Precipitation 0.00 in 0.01 in 0.62 in (1975)
Month to date precipitation 0.15 0.44  
Year to date precipitation 0.58 1.74  
Snow  
Snow 0.00 in 0.00 in 0.00 in (2013)
Month to date snowfall 0.0 0.0  
Since 1 July snowfall T 0.3  
Snow Depth 0.00 in    
Sea Level Pressure  
Sea Level Pressure 29.84 in    
Wind  
Wind Speed 15 mph (SSW)    
Max Wind Speed 28 mph    
Max Gust Speed 35 mph    
Visibility 10 miles    
Events      
T = Trace of Precipitation, MM = Missing Value Source: NWS Daily Summary

Daily Weather History Graph

Daily Weather History Graph

Search for Another Location

Airport:

Trip Planner

Search our weather history database for the weather conditions in past years. The results will help you decide how hot, cold, wet, or windy it might be!

Date:

Astronomy

Mar. 31, 2013 Rise Set
Actual Time 6:27 AM PDT 7:02 PM PDT
Civil Twilight 6:02 AM PDT 7:27 PM PDT
Nautical Twilight 5:31 AM PDT 7:58 PM PDT
Astronomical Twilight 5:00 AM PDT 8:29 PM PDT
Moon No Moon Rise 9:27 AM PDT (3/31)
Length of Visible Light 13h 25m
Length of Day
12h 34m
Waning Gibbous, 76% of the Moon is Illuminated
Mar 31
Waning Gibbous
Apr 2
Last Quarter
Apr 10
New
Apr 18
First Quarter
Apr 25
Full

Hourly Weather History & Observations

Time (PDT) Temp. Dew Point Humidity Pressure Visibility Wind Dir Wind Speed Gust Speed Precip Events Conditions
12:56 AM 66.9 °F 30.0 °F 25% 29.87 in 10.0 mi South 8.1 mph - N/A   Clear
1:56 AM 64.9 °F 30.0 °F 27% 29.87 in 10.0 mi South 8.1 mph - N/A   Clear
2:56 AM 63.0 °F 30.0 °F 29% 29.86 in 10.0 mi SSW 6.9 mph - N/A   Clear
3:56 AM 63.0 °F 30.9 °F 30% 29.86 in 10.0 mi South 8.1 mph - N/A   Clear
4:56 AM 63.0 °F 30.0 °F 29% 29.86 in 10.0 mi South 9.2 mph - N/A   Partly Cloudy
5:56 AM 62.1 °F 30.9 °F 31% 29.86 in 10.0 mi SSW 9.2 mph - N/A   Partly Cloudy
6:56 AM 61.0 °F 32.0 °F 34% 29.88 in 10.0 mi SSW 5.8 mph - N/A   Clear
7:56 AM 66.0 °F 34.0 °F 30% 29.88 in 10.0 mi South 17.3 mph - N/A   Partly Cloudy
8:56 AM 69.1 °F 34.0 °F 27% 29.89 in 10.0 mi South 17.3 mph 24.2 mph N/A   Partly Cloudy
9:56 AM 73.0 °F 35.1 °F 25% 29.89 in 10.0 mi South 16.1 mph 21.9 mph N/A   Partly Cloudy
10:56 AM 75.9 °F 35.1 °F 23% 29.89 in 10.0 mi South 17.3 mph 21.9 mph N/A   Scattered Clouds
11:56 AM 77.0 °F 36.0 °F 23% 29.88 in 10.0 mi South 20.7 mph 26.5 mph N/A   Partly Cloudy
12:56 PM 79.0 °F 36.0 °F 21% 29.87 in 10.0 mi SSW 19.6 mph 27.6 mph N/A   Partly Cloudy
1:56 PM 78.1 °F 35.1 °F 21% 29.84 in 10.0 mi SSW 15.0 mph 29.9 mph N/A   Partly Cloudy
2:56 PM 80.1 °F 32.0 °F 17% 29.80 in 10.0 mi SSW 20.7 mph 27.6 mph N/A   Partly Cloudy
3:56 PM 80.1 °F 30.0 °F 16% 29.78 in 10.0 mi SSW 17.3 mph 28.8 mph N/A   Partly Cloudy
4:56 PM 78.8 °F 26.6 °F 15% 29.82 in 10.0 mi SW 19.6 mph 31.1 mph N/A   Partly Cloudy
5:56 PM 77.0 °F 24.8 °F 14% 29.81 in 10.0 mi SW 23.0 mph 28.8 mph N/A   Partly Cloudy
6:56 PM 73.9 °F 27.0 °F 18% 29.76 in 10.0 mi SW 21.9 mph 32.2 mph N/A   Partly Cloudy
7:56 PM 72.0 °F 33.1 °F 24% 29.76 in 10.0 mi SW 24.2 mph - N/A   Clear
8:56 PM 71.1 °F 35.1 °F 27% 29.79 in 10.0 mi SSW 15.0 mph 23.0 mph N/A   Clear
9:56 PM 69.1 °F 37.0 °F 31% 29.80 in 10.0 mi SW 12.7 mph - N/A   Clear
10:56 PM 66.9 °F 37.9 °F 34% 29.81 in 10.0 mi WSW 10.4 mph - N/A   Partly Cloudy
11:56 PM 64.9 °F 37.9 °F 37% 29.82 in 10.0 mi SW 17.3 mph 24.2 mph N/A   Partly Cloudy